Location: Arboyeti
(42.1122°N, 44.6017°E)
Time: 21:10:57
(UTC+00:00)

Tiangong - Visible Passes

Search period start: 21 September 2021 00:00
Search period end: 01 October 2021 00:00
Orbit: 380 x 385 km, 41.5° (Epoch: 20 September)

Date Brightness Start Highest point End Pass type
(mag) Time Alt. Az. Time Alt. Az. Time Alt. Az.
25 Sep 3.7 01:52:35 10° S 01:54:32 15° SSE 01:56:29 10° ESE visible
27 Sep 2.9 01:29:35 19° S 01:30:47 24° SSE 01:33:24 10° E visible
28 Sep 4.2 00:32:27 11° ESE 00:32:27 11° ESE 00:32:44 10° ESE visible
28 Sep 1.6 02:04:38 14° WSW 02:07:11 52° SSE 02:10:17 10° E visible
29 Sep 2.3 01:07:27 35° SE 01:07:27 35° SE 01:10:03 10° E visible
30 Sep 1.1 01:42:25 33° WSW 01:43:37 68° S 01:46:46 10° E visible
